Home > Weather > Hohhot > Past weeks

Flag for China Weather for the Past 2 Weeks in Hohhot, Inner Mongolia, China

Now
12 °F

Passing clouds.


Feels Like: -1 °F
Forecast: 6 / 17 °F
Wind: 10 mph from North

Location: Hohhot Airport

Current Time: Feb 13, 2016 at 5:10:18 AM

Latest Report: Feb 13, 2016 at 4:00 AM


Visibility: N/A

Pressure: 30.30 "Hg (26.41 "Hg at 1053m altitude)

Humidity: 57%

Dew point: 0 °F

Location of HohhotLocation

Historic Weather in Hohhot — Graph

°F

Hohhot Temperature Yesterday

Maximum temperature yesterday: 37 °F (at 1:00 AM)
Minimum temperature yesterday: 19 °F (at 11:00 PM)
Average temperature yesterday: 28 °F

High & Low Weather Summary for the Past Weeks

 TemperatureHumidityPressure
High50 °F (Feb 10, 4:00 PM)86% (Feb 12, 12:00 AM)30.57 "Hg (Feb 12, 12:00 AM)
Low-9 °F (Jan 31, 6:00 AM)20% (Feb 10, 1:00 PM)29.77 "Hg (Feb 10, 3:00 PM)
Average17 °F56%30.21 "Hg
* Reported Jan 29 4:00 AM — Feb 13 4:00 AM, Hohhot, Weather by CustomWeather, © 2016

Note: Actual official high and low records may vary slightly from our data, if they occured in-between our weather recording intervals... More about our weather records

Advertising

Hohhot Weather History for the Previous 24 Hours

 ConditionsComfort  
Time TempWeatherWind HumidityBarometerVisibility
4:00 AM
Sat, Feb 13
12 °FPassing clouds.10 mph57%30.30 "HgN/A
3:00 AM14 °FPassing clouds.13 mph57%30.30 "HgN/A
2:00 AM14 °FPassing clouds.15 mph57%30.27 "HgN/A
1:00 AM16 °FPassing clouds.20 mph57%30.27 "HgN/A
12:00 AM19 °FPassing clouds.10 mph53%30.24 "HgN/A
11:00 PM
Fri, Feb 12
19 °FPassing clouds.15 mph58%30.24 "HgN/A
10:00 PM21 °FPassing clouds.15 mph54%30.21 "HgN/A
9:00 PM21 °FPassing clouds.10 mph63%30.21 "HgN/A
8:00 PM23 °FPassing clouds.13 mph54%30.18 "HgN/A
7:00 PM21 °FPassing clouds.13 mph63%30.15 "HgN/A
6:00 PM23 °FPartly sunny.22 mph58%30.09 "HgN/A
5:00 PM23 °FPartly sunny.20 mph63%30.04 "HgN/A
4:00 PM23 °FLight snow. Partly sunny.20 mph63%30.01 "HgN/A
3:00 PM25 °FLight snow. Partly sunny.20 mph63%30.01 "HgN/A
2:00 PM25 °FLight snow. Partly sunny.17 mph63%29.98 "HgN/A
1:00 PM25 °FLight snow. Scattered clouds.17 mph69%29.98 "Hg4 mi
12:00 PM27 °FLight snow. Scattered clouds.20 mph69%29.98 "Hg4 mi
11:00 AM25 °FSnow. Ice fog.24 mph80%29.98 "Hg1 mi
10:00 AM28 °FPartly sunny.24 mph64%29.98 "HgN/A
9:00 AM30 °FPartly sunny.22 mph59%29.92 "HgN/A
8:00 AM34 °FPartly sunny.15 mph56%29.92 "HgN/A
7:00 AM32 °FPassing clouds.1 mph60%29.89 "HgN/A
6:00 AM30 °FPassing clouds.6 mph59%29.89 "HgN/A
5:00 AM32 °FPassing clouds.13 mph51%29.89 "HgN/A
Weather by CustomWeather, © 2016

See weather overviewHow to use our weather pages